RH
59 62 63 63 64 63 62 66 68 69 70 70 68 66 62 61 61 59 58 57 56 58 57 52 48 47 45 44 47 49 48 51 53 51 51 53 50 47 48 50 50 49
59 62 61 61 65 67 67 70 73 72 72 72 69 64 62 62 61 58 54 53 53 53 52 47 42 43 43 41 46 50 51 54 56 54 55 55 52 52 52 51 50 49
61 62 61 61 64 68 71 74 77 76 75 73 68 63 62 62 60 55 52 52 52 49 48 47 43 44 44 42 46 50 51 55 55 54 55 53 51 54 55 55 53 50
63 62 61 62 64 68 72 76 79 79 75 73 68 62 59 59 57 54 54 54 50 47 48 48 47 46 45 42 44 45 46 48 47 47 51 51 49 52 54 56 56 51
62 62 63 65 68 70 72 76 81 80 74 71 67 60 55 54 56 56 55 53 50 48 48 49 49 47 44 42 43 43 43 43 41 41 46 48 48 51 53 55 55 53
62 61 64 66 69 70 72 78 80 74 68 65 63 59 55 57 60 60 55 53 52 51 50 51 51 47 45 45 45 45 44 43 40 39 41 44 46 50 53 54 55 55
65 62 63 65 68 70 71 74 71 64 62 62 60 60 59 62 65 63 59 57 55 56 56 54 51 49 49 48 46 46 44 40 37 37 40 42 43 47 50 52 54 55
66 63 63 65 68 71 70 67 63 62 61 58 59 62 62 64 66 63 61 61 59 59 59 57 54 53 52 50 48 45 42 38 37 39 41 41 42 44 46 50 54 56
69 64 64 67 67 68 67 62 63 66 63 59 61 64 63 65 66 64 62 62 62 61 60 59 59 57 54 52 49 44 41 41 41 43 44 44 44 46 47 50 53 55
72 68 69 69 65 64 66 62 61 64 64 61 62 63 62 63 64 64 63 62 61 61 59 60 59 58 57 54 47 43 44 45 46 47 48 48 47 48 49 50 51 52
75 74 74 71 65 64 65 62 60 62 62 60 60 62 63 63 62 63 63 60 59 58 58 59 59 59 58 52 46 46 47 47 48 49 49 49 49 48 48 48 48 48
75 76 75 72 68 67 66 64 62 61 61 60 59 60 62 61 61 62 60 58 58 58 58 59 59 58 55 50 48 49 48 48 49 49 49 50 50 49 48 47 46 46
74 74 74 72 70 69 68 67 64 61 61 61 60 60 60 59 59 57 56 55 55 55 55 55 55 54 53 51 50 51 50 50 51 52 53 52 50 50 50 50 50 50
74 73 74 74 72 70 69 69 66 62 62 63 62 62 62 61 59 55 52 51 52 52 50 50 51 52 52 52 52 52 52 52 54 55 54 52 51 52 53 53 54 55
75 74 74 76 76 74 72 72 70 66 64 63 64 64 63 61 60 56 52 51 51 50 50 49 50 51 53 53 53 53 54 55 57 57 55 55 57 59 58 58 59 59
77 75 75 77 79 77 75 74 74 71 67 64 64 64 62 61 60 56 54 53 53 53 52 52 53 53 54 56 56 57 58 60 61 59 59 61 64 65 64 65 65 65
79 78 78 79 80 79 78 78 76 75 72 68 67 65 62 61 62 59 57 58 59 58 57 56 57 59 59 60 61 62 64 65 65 63 63 65 67 68 69 71 70 71
87 84 84 84 83 81 82 82 80 78 77 74 71 69 65 62 61 60 60 60 61 62 63 63 64 66 65 63 64 67 68 69 68 66 67 68 69 70 73 75 74 75
91 87 85 88 88 86 85 86 84 81 80 78 75 74 72 67 63 62 61 61 61 63 66 69 71 72 71 68 67 70 72 72 70 69 70 69 68 71 76 80 82 83
90 90 89 91 93 92 91 89 87 85 84 82 80 78 75 71 69 67 66 64 64 66 70 74 75 74 72 72 71 72 75 74 71 71 72 69 67 71 77 80 84 86
86 88 89 90 92 95 96 91 88 88 89 87 86 84 82 79 77 74 72 71 71 73 76 80 78 75 72 72 72 73 75 74 72 72 71 69 68 70 72 73 73 73
88 88 87 86 87 92 95 92 89 90 92 90 89 89 87 86 85 82 77 75 75 77 80 83 84 81 77 74 74 74 75 74 73 71 68 67 68 67 65 62 62 63
93 91 91 90 89 91 93 92 90 91 90 87 85 85 84 82 82 82 79 77 75 76 77 79 81 82 80 78 78 79 78 77 76 73 70 68 68 67 63 60 60 63
95 94 94 94 93 92 92 90 88 87 85 80 80 82 80 77 75 76 75 75 75 73 70 70 73 78 79 79 80 81 79 76 76 76 75 71 68 67 66 63 62 63
95 95 94 93 93 92 88 87 86 85 81 79 81 83 81 77 76 75 75 76 75 71 68 68 71 76 79 80 81 81 79 78 78 79 77 73 69 67 66 64 64 66
90 92 92 91 90 88 85 84 84 83 81 80 82 84 82 79 80 80 81 82 79 76 75 75 76 78 81 83 83 82 83 83 82 79 77 75 72 71 71 70 71 74